Flag for U.S.A. Weather past 2 weeks in Clarksville, Tennessee, U.S.A.

Now
35 °F

Mostly cloudy.


Feels Like: 32 °F
Forecast: 28 / 41 °F
Wind: 3 mph from Northeast

Location: Outlaw Field

Current Time: Dec 18, 2014 at 8:19:24 PM

Latest Report: Dec 18, 2014 at 7:52 PM


Visibility: 10 mi

Pressure: 30.25 "Hg

Humidity: 82%

Dew point: 30 °F

Location of ClarksvilleLocation

Historic Weather in Clarksville — Graph

°F

Clarksville temperature yesterday

Maximum temperature yesterday: 41 °F (at 2:52 PM)
Minimum temperature yesterday: 30 °F (at 10:52 PM)
Average temperature yesterday: 36 °F

Past Weeks' High & Low Weather Summary

 TemperatureHumidityPressure
High67 °F (Dec 5, 1:52 PM)100% (Dec 4, 11:52 PM)30.52 "Hg (Dec 4, 11:52 PM)
Low21 °F (Dec 12, 4:52 AM)55% (Dec 8, 10:52 AM)29.78 "Hg (Dec 15, 10:52 PM)
Average42 °F81%30.24 "Hg
* Reported Dec 3 6:52 PM — Dec 18 6:52 PM, Clarksville, Weather by CustomWeather, © 2014

Note: Actual official high and low records may vary slightly from our data, if they occured in-between our weather recording intervals... More about our weather records

Advertising

Clarksville weather history for previous 24 hours

 ConditionsComfort  
Time TempWeatherWind HumidityBarometerVisibility
6:52 PM
Dec 18
35 °FMostly cloudy.3 mph82%30.25 "Hg10 mi
5:52 PM35 °FMostly cloudy.No wind82%30.23 "Hg10 mi
4:52 PM35 °FOvercast.No wind78%30.24 "Hg10 mi
3:52 PM36 °FMostly cloudy.3 mph75%30.23 "Hg10 mi
2:52 PM36 °FCloudy.5 mph79%30.23 "Hg10 mi
1:52 PM35 °FMore clouds than sun.6 mph82%30.23 "Hg10 mi
12:52 PM36 °FMostly cloudy.5 mph82%30.24 "Hg10 mi
11:52 AM34 °FOvercast.6 mph85%30.27 "Hg8 mi
10:52 AM34 °FFog.7 mph85%30.30 "Hg6 mi
9:52 AM33 °FFog.3 mph88%30.29 "Hg6 mi
8:52 AM33 °FFog.6 mph88%30.29 "Hg4 mi
7:52 AM32 °FIce fog.3 mph92%30.27 "Hg6 mi
6:52 AM32 °FOvercast.No wind88%30.27 "Hg9 mi
5:52 AM32 °FLight freezing rain. Ice fog.6 mph92%30.27 "Hg6 mi
4:52 AM32 °FLight freezing rain. Ice fog.3 mph88%30.27 "Hg5 mi
3:52 AM32 °FLight freezing rain. Ice fog.6 mph88%30.26 "Hg6 mi
2:52 AM32 °FLight freezing rain. Ice fog.5 mph85%30.29 "Hg6 mi
1:52 AM32 °FLight freezing rain. Overcast.No wind85%30.29 "Hg7 mi
12:52 AM33 °FOvercast.3 mph78%30.32 "Hg10 mi
11:52 PM
Dec 17
32 °FOvercast.3 mph82%30.29 "Hg10 mi
10:52 PM30 °FPassing clouds.No wind85%30.29 "Hg10 mi
9:52 PM31 °FClear.5 mph82%30.28 "Hg10 mi
8:52 PM31 °FClear.6 mph82%30.29 "Hg10 mi
Weather by CustomWeather, © 2014

See weather overviewHow to use our weather pages